When you browse on this site, cookies collect data to enhance your experience and personalize the content and advertising you see.
Visit our Privacy Policy to learn more. By continuing to use the site, you agree to this use of cookies and data.
  • In United Kingdom
  • List of Countries
  • For 7 days
  • Water Temperature
  • Weather Map
  • Weather Widgets
  • user-avatar
    Login

    Hourly Weather Budakeszi

    Today, 16 September, Monday

    Time Temperature Precipitation Wind Pressure Humidity
    00:00 +16°C° 0 mm 1 mps 738 mmHg 62%
    01:00 +16°C° 0 mm 1 mps 738 mmHg 67%
    02:00 +16°C° 0 mm 1 mps 738 mmHg 69%
    03:00 +15°C° 0 mm 1 mps 737 mmHg 71%
    04:00 +15°C° 0 mm 1 mps 737 mmHg 73%
    05:00 +16°C° 0 mm 1 mps 737 mmHg 72%
    06:00 +16°C° 0 mm 1 mps 737 mmHg 71%
    07:00 +18°C° 0 mm 1 mps 737 mmHg 71%
    08:00 +20°C° 0 mm 1 mps 737 mmHg 65%
    09:00 +21°C° 0 mm 2 mps 737 mmHg 59%
    10:00 +25°C° 0 mm 2 mps 737 mmHg 54%
    11:00 +26°C° 0 mm 3 mps 737 mmHg 50%
    12:00 +27°C° 0 mm 3 mps 736 mmHg 46%
    13:00 +28°C° 0 mm 4 mps 736 mmHg 43%
    14:00 +28°C° 0 mm 4 mps 735 mmHg 42%
    15:00 +27°C° 0 mm 4 mps 735 mmHg 41%
    16:00 +27°C° 0 mm 4 mps 734 mmHg 40%
    17:00 +25°C° 0 mm 3 mps 734 mmHg 43%
    18:00 +24°C° 0 mm 2 mps 734 mmHg 45%
    19:00 +21°C° 0 mm 2 mps 734 mmHg 47%
    20:00 +20°C° 0 mm 2 mps 734 mmHg 48%
    21:00 +21°C° 0 mm 1 mps 734 mmHg 49%
    22:00 +20°C° 0 mm 1 mps 734 mmHg 50%
    23:00 +20°C° 0 mm 1 mps 734 mmHg 50%

    Tomorrow, 17 September, Tuesday

    Time Temperature Precipitation Wind Pressure Humidity
    00:00 +19°C° 0 mm 2 mps 734 mmHg 51%
    01:00 +19°C° 0 mm 2 mps 734 mmHg 52%
    02:00 +18°C° 0 mm 2 mps 734 mmHg 55%
    03:00 +18°C° 0 mm 2 mps 734 mmHg 57%
    04:00 +18°C° 0 mm 2 mps 733 mmHg 60%
    05:00 +18°C° 0 mm 3 mps 733 mmHg 63%
    06:00 +18°C° 0 mm 3 mps 734 mmHg 66%
    07:00 +18°C° 0 mm 3 mps 734 mmHg 68%
    08:00 +19°C° 0 mm 3 mps 734 mmHg 66%
    09:00 +20°C° 0 mm 4 mps 734 mmHg 63%
    10:00 +21°C° 0 mm 4 mps 734 mmHg 61%
    11:00 +21°C° 0 mm 5 mps 734 mmHg 60%
    12:00 +21°C° 0 mm 5 mps 734 mmHg 59%
    13:00 +21°C° 0 mm 5 mps 733 mmHg 59%
    14:00 +21°C° 0 mm 5 mps 733 mmHg 58%
    15:00 +21°C° 0 mm 5 mps 733 mmHg 57%
    16:00 +21°C° 0 mm 5 mps 732 mmHg 56%
    17:00 +19°C° 0 mm 5 mps 732 mmHg 63%
    18:00 +18°C° 0 mm 4 mps 732 mmHg 69%
    19:00 +17°C° 0 mm 3 mps 732 mmHg 76%
    20:00 +17°C° 0 mm 3 mps 733 mmHg 77%
    21:00 +16°C° 0 mm 3 mps 733 mmHg 78%
    22:00 +15°C° 0 mm 4 mps 733 mmHg 79%
    23:00 +14°C° 0 mm 4 mps 734 mmHg 72%

    Day after tomorrow, 18 September, Wednesday

    Time Temperature Precipitation Wind Pressure Humidity
    00:00 +13°C° 0 mm 5 mps 734 mmHg 65%
    01:00 +12°C° 0 mm 5 mps 734 mmHg 58%
    02:00 +10°C° 0 mm 5 mps 735 mmHg 56%
    03:00 +9°C° 0 mm 6 mps 735 mmHg 55%
    04:00 +9°C° 0 mm 6 mps 736 mmHg 54%
    05:00 +8°C° 0 mm 6 mps 737 mmHg 54%
    06:00 +8°C° 0 mm 6 mps 737 mmHg 54%
    07:00 +8°C° 0 mm 7 mps 738 mmHg 54%
    08:00 +9°C° 0 mm 6 mps 738 mmHg 49%
    09:00 +11°C° 0 mm 6 mps 739 mmHg 45%
    10:00 +13°C° 0 mm 5 mps 739 mmHg 41%
    11:00 +14°C° 0 mm 5 mps 739 mmHg 38%
    12:00 +15°C° 0 mm 5 mps 739 mmHg 35%
    13:00 +17°C° 0 mm 4 mps 739 mmHg 32%
    14:00 +17°C° 0 mm 4 mps 739 mmHg 32%
    15:00 +17°C° 0 mm 4 mps 739 mmHg 32%
    16:00 +17°C° 0 mm 4 mps 738 mmHg 32%
    17:00 +14°C° 0 mm 3 mps 739 mmHg 36%
    18:00 +13°C° 0 mm 3 mps 739 mmHg 40%
    19:00 +12°C° 0 mm 2 mps 739 mmHg 44%
    20:00 +12°C° 0 mm 2 mps 739 mmHg 45%
    21:00 +10°C° 0 mm 2 mps 739 mmHg 46%
    22:00 +10°C° 0 mm 2 mps 739 mmHg 47%
    23:00 +9°C° 0 mm 2 mps 739 mmHg 50%

    19 September, Thursday

    Time Temperature Precipitation Wind Pressure Humidity
    00:00 +9°C° 0 mm 2 mps 740 mmHg 52%
    01:00 +8°C° 0 mm 2 mps 740 mmHg 55%
    02:00 +8°C° 0 mm 2 mps 740 mmHg 58%
    03:00 +8°C° 0 mm 2 mps 739 mmHg 61%
    04:00 +7°C° 0 mm 2 mps 739 mmHg 64%
    05:00 +8°C° 0 mm 2 mps 740 mmHg 63%
    06:00 +8°C° 0 mm 3 mps 740 mmHg 63%
    07:00 +9°C° 0 mm 3 mps 740 mmHg 62%
    08:00 +10°C° 0 mm 4 mps 740 mmHg 55%
    09:00 +12°C° 0 mm 4 mps 741 mmHg 48%
    10:00 +13°C° 0 mm 5 mps 741 mmHg 41%
    11:00 +14°C° 0 mm 5 mps 741 mmHg 39%
    12:00 +15°C° 0 mm 5 mps 741 mmHg 36%
    13:00 +15°C° 0 mm 5 mps 741 mmHg 34%
    14:00 +15°C° 0 mm 5 mps 740 mmHg 34%
    15:00 +15°C° 0 mm 5 mps 740 mmHg 34%
    16:00 +15°C° 0 mm 4 mps 740 mmHg 35%
    17:00 +14°C° 0 mm 4 mps 741 mmHg 40%
    18:00 +12°C° 0 mm 4 mps 741 mmHg 45%
    19:00 +11°C° 0 mm 3 mps 741 mmHg 50%
    20:00 +10°C° 0 mm 3 mps 741 mmHg 53%
    21:00 +10°C° 0 mm 3 mps 742 mmHg 56%
    22:00 +9°C° 0 mm 3 mps 742 mmHg 60%
    23:00 +9°C° 0 mm 3 mps 742 mmHg 62%

    20 September, Friday

    Time Temperature Precipitation Wind Pressure Humidity
    00:00 +8°C° 0 mm 3 mps 742 mmHg 64%
    01:00 +8°C° 0 mm 3 mps 742 mmHg 66%
    02:00 +7°C° 0 mm 2 mps 742 mmHg 68%
    03:00 +7°C° 0 mm 2 mps 742 mmHg 69%
    04:00 +7°C° 0 mm 2 mps 742 mmHg 71%
    05:00 +7°C° 0 mm 2 mps 742 mmHg 69%
    06:00 +8°C° 0 mm 2 mps 743 mmHg 67%
    07:00 +8°C° 0 mm 2 mps 743 mmHg 64%
    08:00 +10°C° 0 mm 2 mps 743 mmHg 56%
    09:00 +13°C° 0 mm 2 mps 744 mmHg 47%
    10:00 +15°C° 0 mm 2 mps 744 mmHg 39%
    11:00 +16°C° 0 mm 2 mps 744 mmHg 34%
    12:00 +17°C° 0 mm 2 mps 743 mmHg 29%
    13:00 +17°C° 0 mm 2 mps 743 mmHg 25%
    14:00 +17°C° 0 mm 2 mps 743 mmHg 25%
    15:00 +17°C° 0 mm 2 mps 743 mmHg 26%
    16:00 +17°C° 0 mm 2 mps 742 mmHg 26%
    17:00 +16°C° 0 mm 2 mps 742 mmHg 31%
    18:00 +14°C° 0 mm 2 mps 742 mmHg 35%
    19:00 +12°C° 0 mm 2 mps 742 mmHg 40%
    20:00 +12°C° 0 mm 1 mps 743 mmHg 42%
    21:00 +11°C° 0 mm 1 mps 743 mmHg 44%
    22:00 +10°C° 0 mm 1 mps 743 mmHg 45%
    23:00 +10°C° 0 mm 1 mps 743 mmHg 48%

    21 September, Saturday

    Time Temperature Precipitation Wind Pressure Humidity
    00:00 +9°C° 0 mm 1 mps 743 mmHg 50%
    01:00 +9°C° 0 mm 1 mps 743 mmHg 52%
    02:00 +8°C° 0 mm 1 mps 743 mmHg 53%
    03:00 +8°C° 0 mm 1 mps 743 mmHg 55%
    04:00 +8°C° 0 mm 1 mps 743 mmHg 57%
    05:00 +8°C° 0 mm 1 mps 743 mmHg 55%
    06:00 +9°C° 0 mm 1 mps 743 mmHg 54%
    07:00 +9°C° 0 mm 1 mps 743 mmHg 53%
    08:00 +11°C° 0 mm 1 mps 743 mmHg 47%
    09:00 +13°C° 0 mm 1 mps 743 mmHg 41%
    10:00 +15°C° 0 mm 1 mps 743 mmHg 35%
    11:00 +16°C° 0 mm 1 mps 743 mmHg 32%
    12:00 +19°C° 0 mm 1 mps 743 mmHg 29%
    13:00 +20°C° 0 mm 1 mps 743 mmHg 27%
    14:00 +20°C° 0 mm 1 mps 742 mmHg 27%
    15:00 +20°C° 0 mm 1 mps 742 mmHg 27%
    16:00 +20°C° 0 mm 1 mps 741 mmHg 27%
    17:00 +16°C° 0 mm 0 mps 741 mmHg 30%
    18:00 +14°C° 0 mm 0 mps 741 mmHg 34%
    19:00 +13°C° 0 mm 0 mps 741 mmHg 37%
    20:00 +12°C° 0 mm 0 mps 741 mmHg 38%
    21:00 +12°C° 0 mm 0 mps 741 mmHg 39%
    22:00 +11°C° 0 mm 0 mps 742 mmHg 39%
    23:00 +12°C° 0 mm 1 mps 742 mmHg 41%
    Show more